MDT,Max TemperatureF,Mean TemperatureF,Min TemperatureF,Max Dew PointF,MeanDew PointF,Min DewpointF,Max Humidity, Mean Humidity, Min Humidity, Max Sea Level PressureIn, Mean Sea Level PressureIn, Min Sea Level PressureIn, Max VisibilityMiles, Mean VisibilityMiles, Min VisibilityMiles, Max Wind SpeedMPH, Mean Wind SpeedMPH, Max Gust SpeedMPH,PrecipitationIn, CloudCover, Events, WindDirDegrees
2013-8-1,71,63,55,55,48,45,100,70,40,30.09,30.02,29.97,10,10,7,13,6,16,0.02,5,Rain,161
2013-8-2,62,57,52,55,53,50,93,81,69,30.12,30.00,29.91,10,8,1,17,6,20,0.55,8,Rain,109
2013-8-3,69,60,51,54,52,48,100,78,55,30.16,30.11,30.06,10,10,9,18,4,24,T,5,Rain,316
2013-8-4,79,63,46,54,48,43,93,62,31,30.09,30.03,29.96,10,10,2,32,6,43,0.00,1,,299
2013-8-5,75,62,49,57,51,47,89,65,41,30.01,29.96,29.91,10,9,2,32,9,43,0.20,1,Rain,327
2013-8-6,80,65,49,51,46,40,86,57,27,30.00,29.98,29.96,10,10,10,20,8,24,0.00,1,,321
2013-8-7,80,65,49,59,52,47,89,62,35,30.03,29.99,29.94,10,10,2,14,6,18,0.14,2,Rain,93
2013-8-8,71,62,53,57,55,52,93,75,57,30.17,30.10,30.02,10,10,10,17,7,20,0.08,6,,16
2013-8-9,77,66,54,54,52,50,93,67,40,30.22,30.14,30.02,10,10,10,15,8,18,0.00,5,,111
2013-8-10,82,67,51,55,53,45,100,67,33,30.05,30.01,29.95,10,10,10,28,5,36,0.00,1,,65
2013-8-11,81,66,51,58,54,50,96,68,39,30.05,30.01,29.98,10,10,10,14,5,18,0.00,0,,89
2013-8-12,83,69,54,58,54,52,86,63,40,30.05,30.01,29.96,10,10,10,17,7,22,0.00,0,,18
2013-8-13,82,69,56,57,53,48,87,60,33,30.08,30.05,30.01,10,10,10,22,5,26,T,1,,200
2013-8-14,87,70,52,53,46,40,83,52,20,30.03,29.98,29.93,10,10,10,13,5,16,0.00,0,,292
2013-8-15,94,72,50,48,40,33,71,42,12,29.95,29.91,29.86,10,10,10,21,6,35,0.00,0,,255
2013-8-16,93,73,53,48,43,38,66,40,14,29.91,29.87,29.83,10,10,10,28,11,33,0.00,0,,299
2013-8-17,88,74,60,47,43,38,60,39,17,29.95,29.90,29.86,10,10,10,29,12,35,0.00,0,,268
2013-8-18,86,74,61,46,40,33,52,35,17,29.93,29.89,29.83,10,10,10,28,16,35,0.00,0,,255
2013-8-19,88,71,54,43,40,38,49,34,19,29.89,29.83,29.76,10,10,10,33,16,40,0.00,0,,256
2013-8-20,84,68,51,45,37,27,62,38,14,29.96,29.87,29.83,10,10,10,24,11,32,0.00,0,,268
2013-8-21,79,61,42,42,36,29,89,53,16,30.17,30.09,29.98,10,10,10,16,6,20,0.00,0,,95
2013-8-22,87,65,42,44,38,34,76,47,17,30.08,29.97,29.83,10,10,10,13,5,16,0.00,0,,141
2013-8-23,86,73,60,47,44,41,60,41,22,29.81,29.75,29.68,10,10,10,24,8,30,T,2,,296
2013-8-24,87,71,54,47,41,31,60,37,14,29.82,29.79,29.76,10,10,10,21,10,25,0.00,0,,273
2013-8-25,86,68,50,50,43,39,65,42,19,29.92,29.86,29.79,10,10,9,35,8,43,T,1,Rain,137
2013-8-26,86,71,55,51,43,33,80,48,15,29.94,29.87,29.82,10,10,10,26,13,33,T,1,Rain,245
2013-8-27,91,69,47,43,37,26,66,38,10,29.96,29.89,29.82,10,10,10,23,7,30,0.00,0,,253
2013-8-28,83,67,50,52,45,39,68,46,24,29.95,29.90,29.85,10,10,10,22,6,26,0.01,1,,302
2013-8-29,93,71,49,56,49,40,83,50,16,30.06,29.96,29.85,10,10,5,44,8,53,0.10,1,Rain,250
2013-8-30,80,67,54,50,45,37,72,50,27,30.03,29.98,29.93,10,10,10,32,15,41,0.00,0,,250
2013-8-31,77,61,44,45,40,37,83,54,25,30.15,30.09,30.02,10,10,10,14,5,17,0.00,0,,66